FENGYUN 1C DEB, 32459

Orbit data source: Space-Track

FENGYUN 1C DEB, 32459 is space debris in SSO originally from a launch on Mon, 10 May 1999 UTC launched from the Taiyaun Space Center, China (TSC). Fengyun 1C debris stems from the Chinese weather satellite Fengyun-1C, which was intentionally destroyed by a Chinese anti-satellite missile in 2007. This event dramatically increased the amount of space debris, with thousands of trackable fragments posing hazards to satellites and human spaceflight. The Fengyun 1C debris cloud has become a focal point in discussions about space sustainability and the need for international regulations to prevent the creation of new debris.

Loading next visibility...
Identifier
32459, 1999-025DBX
Orbit
SSO
Country
Flag of CNCN / PRC
Related business
Manufacturer
Unknown
Mission
Spacecraft
Bus & Motor
Unknown
Mass
Unknown
Launch date (UTC)
1999-05-10 (27 years ago)
Launch vehicle
Unknown
Launch site
Taiyaun Space Center, China (TSC)
Object type
Payload
Rocket body
Debris
Shape & HBR
Unknown shape, 0.1 m
Radar Cross Section
Small (<0.1 m²)

Expand to show TLE details & history
Last TLE update: 1 day ago

TLE from 1 day ago
0 FENGYUN 1C DEB
1 32459U 99025DBX 26036.98750283  .00004661  00000-0  10663-2 0  9992
2 32459  98.3002  54.8248 0212715  19.6816 341.2429 14.43133864953477
Epoch: 2026-02-05T23:42Z
TLE epoch observation values (Epoch: 2026-02-05T23:42:00.244Z)
Latitude
-0.00004°
Longitude
-76.80806°
Altitude
607.901 km
Speed
7.631 km/s
True Right ascension
03h 39m 17s
True Declination
0° 00' 00"
Sunlit
Object was in daylight at epoch
Visualization orbit readout
Latitude
Unknown
Longitude
Unknown
Altitude
Unknown
Speed
Unknown
Apparent Right ascension
Unknown
Apparent Declination
Unknown
Sunlit
N/A
Visualization observer readout
Local Sidereal Time
10:04:04
Azimuth
Unknown
Elevation
Unknown
Doppler factor
Unknown
Orbital elements
Apogee altitude
896.795 km
Perigee altitude
593.744 km
Semi-major axis
7,123.406 km
Eccentricity
0.02127
Inclination
98.3002°
RAAN
54.8248°
Arg. of periapsis
19.6816°
True anomaly
340.4389°
Mean anomaly
341.2429°
Eccentric anomaly
340.84295°
Mean motion
3.61004 °/min
Orbital period
99.72 mins
BSTAR
0.0010663
Loading maneuver chart data...
Computing Atmospheric mass density...

Documentation

Showing up to 5 results
|